Date String (YYYY-MM-DD hh:mm:ss) UTC,Instrument flags,absolute air pressure of the measurement (hPa),sample flow rate (lpm),inlet stack bypass flow (lpm),air temperature of the measurement (°C),ambient temperature measured by the external sensor (°C),aerosol sample conditioner tube jacket temperature (°C),OPC LED temperature (°C),internal box temperature (°C),relative humidity of the measurement (%),span deviation,mass concentration of particles derived from Lorenz-Mie calculation of OPC scattering (μg/m³),mass concentration of particles derived from Lorenz-Mie calculation of OPC scattering (μg/m³),mass concentration of particles derived from Lorenz-Mie calculation of OPC scattering (μg/m³)
DateTimeUTC,F1_M11,P_M11,Q1_M11,Q2_M11,T1_M11,T2_M11,T3_M11,T4_M11,T5_M11,U1_M11,ZSPAN_M11,X0_M11,X2_M11,X1_M11
2023-07-31 02:00:00,SystemResetWarning,0834.1,5.01,000.00,028.7,026.0,000.0,036.8,030.2,23.8,0000.0,0005.83,0003.18,0002.66
2023-07-31 02:01:00,SystemResetWarning,0834.1,5.00,000.00,028.6,024.8,000.0,036.7,030.0,23.8,0000.0,0005.83,0003.18,0002.66
2023-07-31 02:02:00,SystemResetWarning,0834.0,5.01,000.00,028.5,024.7,000.0,036.7,029.9,24.0,0000.0,0005.84,0003.19,0002.66
2023-07-31 02:03:00,SystemResetWarning,0834.0,5.01,000.00,028.5,025.1,000.0,036.8,029.8,24.4,0000.0,0005.90,0003.21,0002.65
2023-07-31 02:04:00,SystemResetWarning,0834.1,5.00,000.00,028.5,025.5,000.0,036.8,029.9,24.7,0000.0,0005.57,0003.23,0002.64
2023-07-31 02:05:00,SystemResetWarning,0834.1,5.00,000.00,028.5,026.0,000.0,036.8,030.0,24.8,0000.0,0005.07,0003.18,0002.61
2023-07-31 02:06:00,SystemResetWarning,0834.1,5.00,000.00,028.5,026.4,000.0,036.8,030.1,24.7,0000.0,0005.07,0003.18,0002.60
2023-07-31 02:07:00,SystemResetWarning,0834.1,4.99,000.00,028.5,026.8,000.0,036.9,030.2,24.7,0000.0,0005.02,0003.17,0002.58
2023-07-31 02:08:00,SystemResetWarning,0834.1,5.00,000.00,028.6,027.2,000.0,036.9,030.3,24.8,0000.0,0006.38,0003.16,0002.58
2023-07-31 02:09:00,SystemResetWarning,0834.2,5.00,000.00,028.7,027.4,000.0,036.9,030.4,24.9,0000.0,0006.30,0003.15,0002.58
2023-07-31 02:10:00,SystemResetWarning,0834.2,5.00,000.00,028.7,027.6,000.0,036.9,030.5,24.9,0000.0,0006.39,0003.16,0002.58
2023-07-31 02:11:00,SystemResetWarning,0834.1,4.99,000.00,028.7,026.4,000.0,036.8,030.3,25.0,0000.0,0006.46,0003.17,0002.58
2023-07-31 02:12:00,SystemResetWarning,0834.1,5.00,000.00,028.7,024.9,000.0,036.8,030.1,25.2,0000.0,0007.05,0003.18,0002.58
2023-07-31 02:13:00,SystemResetWarning,0834.1,5.01,000.00,028.6,024.6,000.0,036.7,029.9,25.5,0000.0,0006.98,0003.17,0002.60
2023-07-31 02:14:00,SystemResetWarning,0834.1,5.01,000.00,028.5,024.9,000.0,036.8,029.8,25.3,0000.0,0006.96,0003.16,0002.62
2023-07-31 02:15:00,SystemResetWarning,0834.1,4.98,000.00,028.5,025.4,000.0,036.8,029.9,25.4,0000.0,0006.94,0003.16,0002.66
2023-07-31 02:16:00,SystemResetWarning,0834.1,5.00,000.00,028.5,025.9,000.0,036.8,030.0,25.4,0000.0,0006.71,0003.14,0002.66
2023-07-31 02:17:00,SystemResetWarning,0834.1,5.01,000.00,028.5,026.3,000.0,036.8,030.1,25.3,0000.0,0006.54,0003.13,0002.67
2023-07-31 02:18:00,SystemResetWarning,0834.2,5.02,000.00,028.5,026.7,000.0,036.9,030.2,24.9,0000.0,0006.49,0003.14,0002.68
2023-07-31 02:19:00,SystemResetWarning,0834.1,5.00,000.00,028.6,027.1,000.0,036.9,030.3,24.7,0000.0,0005.44,0003.14,0002.69
2023-07-31 02:20:00,SystemResetWarning,0834.1,4.99,000.00,028.6,027.3,000.0,036.9,030.4,23.8,0000.0,0005.12,0003.17,0002.70
2023-07-31 02:21:00,SystemResetWarning,0834.2,5.00,000.00,028.7,027.6,000.0,036.9,030.5,23.3,0000.0,0005.02,0003.15,0002.70
2023-07-31 02:22:00,SystemResetWarning,0834.2,5.00,000.00,028.7,026.7,000.0,036.9,030.4,23.3,0000.0,0005.01,0003.15,0002.70
2023-07-31 02:23:00,SystemResetWarning,0834.1,5.00,000.00,028.7,025.0,000.0,036.8,030.1,23.7,0000.0,0004.50,0003.13,0002.71
2023-07-31 02:24:00,SystemResetWarning,0834.1,5.01,000.00,028.6,024.5,000.0,036.7,029.9,23.9,0000.0,0004.32,0003.11,0002.70
2023-07-31 02:25:00,SystemResetWarning,0834.1,5.02,000.00,028.5,024.8,000.0,036.8,029.8,24.2,0000.0,0004.21,0003.09,0002.69
2023-07-31 02:26:00,SystemResetWarning,0834.1,4.99,000.00,028.5,025.2,000.0,036.8,029.9,24.5,0000.0,0004.13,0003.08,0002.68
2023-07-31 02:27:00,SystemResetWarning,0834.1,4.99,000.00,028.5,025.7,000.0,036.8,030.0,24.4,0000.0,0004.29,0003.11,0002.69
2023-07-31 02:28:00,SystemResetWarning,0834.2,5.00,000.00,028.5,026.2,000.0,036.8,030.1,24.5,0000.0,0004.44,0003.14,0002.71
2023-07-31 02:29:00,SystemResetWarning,0834.2,5.00,000.00,028.5,026.6,000.0,036.9,030.2,24.4,0000.0,0004.51,0003.15,0002.72
2023-07-31 02:30:00,SystemResetWarning,0834.2,5.01,000.00,028.6,026.9,000.0,036.9,030.3,24.7,0000.0,0004.79,0003.16,0002.73
2023-07-31 02:31:00,SystemResetWarning,0834.2,4.99,000.00,028.6,027.2,000.0,036.9,030.4,24.6,0000.0,0006.71,0003.16,0002.73
2023-07-31 02:32:00,SystemResetWarning,0834.2,4.99,000.00,028.7,027.5,000.0,036.9,030.4,24.3,0000.0,0007.69,0003.18,0002.73
2023-07-31 02:33:00,SystemResetWarning,0834.2,4.99,000.00,028.7,027.5,000.0,036.9,030.5,24.2,0000.0,0007.69,0003.19,0002.73
2023-07-31 02:34:00,SystemResetWarning,0834.2,5.00,000.00,028.7,026.2,000.0,036.9,030.4,24.2,0000.0,0007.63,0003.22,0002.74
2023-07-31 02:35:00,SystemResetWarning,0834.2,5.00,000.00,028.7,024.7,000.0,036.8,030.1,24.3,0000.0,0007.82,0003.25,0002.74
2023-07-31 02:36:00,SystemResetWarning,0834.1,5.01,000.00,028.6,024.6,000.0,036.7,030.0,24.4,0000.0,0008.39,0003.27,0002.75
2023-07-31 02:37:00,SystemResetWarning,0834.2,5.01,000.00,028.5,024.9,000.0,036.8,029.8,24.7,0000.0,0008.45,0003.27,0002.76
2023-07-31 02:38:00,SystemResetWarning,0834.1,4.99,000.00,028.5,025.4,000.0,036.8,029.9,24.5,0000.0,0008.43,0003.26,0002.76
2023-07-31 02:39:00,SystemResetWarning,0834.2,5.00,000.00,028.5,025.9,000.0,036.8,030.0,24.2,0000.0,0009.04,0003.22,0002.73
2023-07-31 02:40:00,SystemResetWarning,0834.1,5.00,000.00,028.5,026.3,000.0,036.9,030.1,24.1,0000.0,0009.33,0003.22,0002.71
2023-07-31 02:41:00,SystemResetWarning,0834.1,5.00,000.00,028.6,026.7,000.0,036.9,030.2,24.1,0000.0,0009.20,0003.21,0002.68
2023-07-31 02:42:00,SystemResetWarning,0834.1,4.99,000.00,028.6,027.0,000.0,036.9,030.3,23.9,0000.0,0008.10,0003.20,0002.67
2023-07-31 02:43:00,SystemResetWarning,0834.1,4.99,000.00,028.6,027.3,000.0,036.9,030.4,23.9,0000.0,0007.48,0003.20,0002.67
2023-07-31 02:44:00,SystemResetWarning,0834.1,5.00,000.00,028.7,027.5,000.0,037.0,030.5,23.9,0000.0,0007.44,0003.17,0002.66
2023-07-31 02:45:00,SystemResetWarning,0834.2,4.99,000.00,028.8,027.3,000.0,036.9,030.5,23.8,0000.0,0007.80,0003.17,0002.65
2023-07-31 02:46:00,SystemResetWarning,0834.2,5.00,000.00,028.7,025.9,000.0,036.9,030.3,24.0,0000.0,0007.65,0003.14,0002.62
2023-07-31 02:47:00,SystemResetWarning,0834.1,5.01,000.00,028.7,025.4,000.0,036.8,030.2,23.9,0000.0,0006.93,0003.11,0002.60
2023-07-31 02:48:00,SystemResetWarning,0834.1,5.01,000.00,028.6,025.6,000.0,036.8,030.1,23.9,0000.0,0006.86,0003.10,0002.58
2023-07-31 02:49:00,SystemResetWarning,0834.1,5.00,000.00,028.6,026.0,000.0,036.9,030.1,23.9,0000.0,0006.71,0003.07,0002.56
2023-07-31 02:50:00,SystemResetWarning,0834.2,5.01,000.00,028.6,026.4,000.0,036.9,030.2,23.7,0000.0,0005.50,0003.10,0002.58
2023-07-31 02:51:00,SystemResetWarning,0834.2,4.99,000.00,028.7,026.7,000.0,037.0,030.3,23.7,0000.0,0005.00,0003.09,0002.59
2023-07-31 02:52:00,SystemResetWarning,0834.3,4.99,000.00,028.7,027.1,000.0,037.0,030.4,23.3,0000.0,0004.98,0003.08,0002.61
2023-07-31 02:53:00,SystemResetWarning,0834.4,5.00,000.00,028.7,027.4,000.0,037.0,030.5,23.5,0000.0,0005.01,0003.10,0002.64
2023-07-31 02:54:00,SystemResetWarning,0834.4,5.00,000.00,028.8,027.6,000.0,037.0,030.6,23.5,0000.0,0005.00,0003.09,0002.62
2023-07-31 02:55:00,SystemResetWarning,0834.3,5.00,000.00,028.8,026.8,000.0,037.0,030.5,23.3,0000.0,0004.94,0003.08,0002.62
2023-07-31 02:56:00,SystemResetWarning,0834.4,5.01,000.00,028.8,025.1,000.0,036.9,030.2,23.4,0000.0,0004.21,0003.04,0002.63
2023-07-31 02:57:00,SystemResetWarning,0834.5,5.00,000.00,028.7,024.6,000.0,036.8,030.1,23.7,0000.0,0004.16,0003.05,0002.64
2023-07-31 02:58:00,SystemResetWarning,0834.4,5.01,000.00,028.6,024.8,000.0,036.8,029.9,24.1,0000.0,0004.33,0003.08,0002.66
2023-07-31 02:59:00,SystemResetWarning,0834.3,5.00,000.00,028.5,025.3,000.0,036.9,029.9,25.0,0000.0,0004.56,0003.11,0002.66
